QPF
0.00 0.00 0.00 0.00 0.00 0.00 0.00 0.00 0.00 0.00 0.00 0.00 0.00 0.00 0.00 0.00 0.00 0.00 0.00 0.00 0.00 0.00 0.00 0.00 0.01 0.00 0.00 0.00 0.00 0.00 0.00 0.01 0.01 0.00 0.00 0.00 0.00 0.01 0.01 0.01 0.06 0.03
0.00 0.00 0.00 0.00 0.00 0.00 0.00 0.00 0.00 0.00 0.00 0.00 0.00 0.00 0.00 0.00 0.00 0.00 0.00 0.00 0.00 0.00 0.00 0.00 0.00 0.00 0.00 0.00 0.00 0.00 0.00 0.00 0.00 0.00 0.01 0.01 0.00 0.00 0.00 0.00 0.04 0.09
0.00 0.00 0.00 0.00 0.00 0.00 0.00 0.00 0.00 0.00 0.00 0.00 0.00 0.00 0.00 0.00 0.00 0.00 0.00 0.00 0.00 0.00 0.00 0.00 0.00 0.00 0.00 0.00 0.00 0.00 0.00 0.00 0.00 0.00 0.01 0.01 0.00 0.00 0.00 0.00 0.01 0.01
0.00 0.00 0.00 0.00 0.00 0.00 0.00 0.00 0.00 0.00 0.00 0.00 0.00 0.00 0.00 0.00 0.00 0.00 0.00 0.00 0.00 0.00 0.00 0.00 0.00 0.00 0.00 0.00 0.00 0.00 0.00 0.00 0.00 0.00 0.00 0.00 0.00 0.01 0.01 0.01 0.01 0.01
0.00 0.00 0.00 0.00 0.00 0.00 0.00 0.00 0.00 0.00 0.00 0.00 0.00 0.00 0.00 0.00 0.00 0.00 0.00 0.00 0.00 0.00 0.00 0.00 0.00 0.00 0.00 0.00 0.00 0.00 0.00 0.00 0.00 0.00 0.00 0.00 0.00 0.01 0.01 0.01 0.01 0.01
0.00 0.00 0.00 0.00 0.00 0.00 0.00 0.00 0.00 0.00 0.00 0.00 0.00 0.00 0.00 0.00 0.00 0.00 0.00 0.00 0.00 0.00 0.00 0.00 0.00 0.00 0.00 0.00 0.00 0.00 0.00 0.00 0.00 0.00 0.00 0.00 0.00 0.00 0.00 0.01 0.01 0.01
0.00 0.00 0.00 0.00 0.00 0.00 0.00 0.00 0.00 0.00 0.00 0.00 0.00 0.00 0.00 0.00 0.00 0.00 0.00 0.00 0.00 0.00 0.00 0.00 0.00 0.00 0.00 0.00 0.00 0.00 0.00 0.00 0.00 0.00 0.00 0.00 0.00 0.00 0.00 0.01 0.01 0.01
0.00 0.00 0.00 0.00 0.00 0.00 0.00 0.00 0.00 0.00 0.00 0.00 0.00 0.00 0.00 0.00 0.00 0.00 0.00 0.00 0.00 0.00 0.00 0.00 0.00 0.00 0.00 0.00 0.00 0.00 0.00 0.00 0.00 0.00 0.00 0.00 0.00 0.00 0.00 0.00 0.00 0.01
0.00 0.00 0.00 0.00 0.00 0.00 0.00 0.00 0.00 0.00 0.00 0.00 0.00 0.00 0.00 0.00 0.00 0.00 0.00 0.00 0.00 0.00 0.00 0.00 0.00 0.00 0.00 0.00 0.00 0.00 0.00 0.00 0.00 0.00 0.00 0.00 0.00 0.00 0.00 0.00 0.00 0.00
0.00 0.00 0.00 0.00 0.00 0.00 0.00 0.00 0.00 0.00 0.00 0.00 0.00 0.00 0.00 0.00 0.00 0.00 0.00 0.00 0.00 0.00 0.00 0.00 0.00 0.00 0.00 0.00 0.00 0.00 0.00 0.00 0.00 0.00 0.00 0.00 0.00 0.00 0.00 0.00 0.00 0.00
0.00 0.00 0.00 0.00 0.00 0.00 0.00 0.00 0.00 0.00 0.00 0.00 0.00 0.00 0.00 0.00 0.00 0.00 0.00 0.00 0.00 0.00 0.00 0.00 0.00 0.00 0.00 0.00 0.00 0.00 0.00 0.00 0.00 0.00 0.00 0.00 0.00 0.00 0.00 0.00 0.00 0.00
0.00 0.00 0.00 0.00 0.00 0.00 0.00 0.00 0.00 0.00 0.00 0.00 0.00 0.00 0.00 0.00 0.00 0.00 0.00 0.00 0.00 0.00 0.00 0.00 0.00 0.00 0.00 0.00 0.00 0.00 0.00 0.00 0.00 0.00 0.00 0.00 0.00 0.00 0.00 0.00 0.00 0.00
0.00 0.00 0.00 0.00 0.00 0.00 0.00 0.00 0.00 0.00 0.00 0.00 0.00 0.00 0.00 0.00 0.00 0.00 0.00 0.00 0.00 0.00 0.00 0.00 0.00 0.00 0.00 0.00 0.00 0.00 0.00 0.00 0.00 0.00 0.00 0.00 0.00 0.00 0.00 0.00 0.00 0.00
0.00 0.00 0.00 0.00 0.00 0.00 0.00 0.00 0.00 0.00 0.00 0.00 0.00 0.00 0.00 0.00 0.00 0.00 0.00 0.00 0.00 0.00 0.00 0.00 0.00 0.00 0.00 0.00 0.00 0.00 0.00 0.00 0.00 0.00 0.00 0.00 0.00 0.00 0.00 0.00 0.00 0.00
0.00 0.00 0.00 0.00 0.00 0.00 0.00 0.00 0.00 0.00 0.00 0.00 0.00 0.00 0.00 0.00 0.00 0.00 0.00 0.00 0.00 0.00 0.00 0.00 0.00 0.00 0.00 0.00 0.00 0.00 0.00 0.00 0.00 0.00 0.00 0.00 0.00 0.00 0.00 0.00 0.00 0.00
0.00 0.00 0.00 0.00 0.00 0.00 0.00 0.00 0.00 0.00 0.00 0.00 0.00 0.00 0.00 0.00 0.00 0.00 0.00 0.00 0.00 0.00 0.00 0.00 0.00 0.00 0.00 0.00 0.00 0.00 0.00 0.00 0.00 0.00 0.00 0.00 0.00 0.00 0.00 0.00 0.00 0.00
0.00 0.00 0.00 0.00 0.00 0.00 0.00 0.00 0.00 0.00 0.00 0.00 0.00 0.00 0.00 0.00 0.00 0.00 0.00 0.00 0.00 0.00 0.00 0.00 0.00 0.00 0.00 0.00 0.00 0.00 0.00 0.00 0.00 0.00 0.00 0.00 0.00 0.00 0.00 0.00 0.00 0.00
0.00 0.00 0.00 0.00 0.00 0.00 0.00 0.00 0.00 0.00 0.00 0.00 0.00 0.00 0.00 0.00 0.00 0.00 0.00 0.00 0.00 0.00 0.00 0.00 0.00 0.00 0.00 0.00 0.00 0.00 0.00 0.00 0.00 0.00 0.00 0.00 0.00 0.00 0.00 0.00 0.00 0.00
0.00 0.00 0.00 0.00 0.00 0.00 0.00 0.00 0.00 0.00 0.00 0.00 0.00 0.00 0.00 0.00 0.00 0.00 0.00 0.00 0.00 0.00 0.00 0.00 0.00 0.00 0.00 0.00 0.00 0.00 0.00 0.00 0.00 0.00 0.00 0.00 0.00 0.00 0.00 0.00 0.00 0.00
0.00 0.00 0.00 0.00 0.00 0.00 0.00 0.00 0.00 0.00 0.00 0.00 0.00 0.00 0.00 0.00 0.00 0.00 0.00 0.00 0.00 0.00 0.00 0.00 0.00 0.00 0.00 0.00 0.00 0.00 0.00 0.00 0.00 0.00 0.00 0.00 0.00 0.00 0.00 0.00 0.00 0.00
0.00 0.00 0.00 0.00 0.00 0.00 0.00 0.00 0.00 0.00 0.00 0.00 0.00 0.00 0.00 0.00 0.00 0.00 0.00 0.00 0.00 0.00 0.00 0.00 0.00 0.00 0.00 0.00 0.00 0.00 0.00 0.00 0.00 0.00 0.00 0.00 0.00 0.00 0.00 0.00 0.00 0.00
0.00 0.00 0.00 0.00 0.00 0.00 0.00 0.00 0.00 0.00 0.00 0.00 0.00 0.00 0.00 0.00 0.00 0.00 0.00 0.00 0.00 0.00 0.00 0.00 0.00 0.00 0.00 0.00 0.00 0.00 0.00 0.00 0.00 0.00 0.00 0.00 0.00 0.00 0.00 0.00 0.00 0.00
0.00 0.00 0.00 0.00 0.00 0.00 0.00 0.00 0.00 0.00 0.00 0.00 0.00 0.00 0.00 0.00 0.00 0.00 0.00 0.00 0.00 0.00 0.00 0.00 0.00 0.00 0.00 0.00 0.00 0.00 0.00 0.00 0.00 0.00 0.00 0.00 0.00 0.00 0.00 0.00 0.00 0.00
0.00 0.00 0.00 0.00 0.00 0.00 0.00 0.00 0.00 0.00 0.00 0.00 0.00 0.00 0.00 0.00 0.00 0.00 0.00 0.00 0.00 0.00 0.00 0.00 0.00 0.00 0.00 0.00 0.00 0.00 0.00 0.00 0.00 0.00 0.00 0.00 0.00 0.00 0.00 0.00 0.00 0.00
0.00 0.00 0.00 0.00 0.00 0.00 0.00 0.00 0.00 0.00 0.00 0.00 0.00 0.00 0.00 0.00 0.00 0.00 0.00 0.00 0.00 0.00 0.00 0.00 0.00 0.00 0.00 0.00 0.00 0.00 0.00 0.00 0.00 0.00 0.00 0.00 0.00 0.00 0.00 0.00 0.00 0.00
0.00 0.00 0.00 0.00 0.00 0.00 0.00 0.00 0.00 0.00 0.00 0.00 0.00 0.00 0.00 0.00 0.00 0.00 0.00 0.00 0.00 0.00 0.00 0.00 0.00 0.00 0.00 0.00 0.00 0.00 0.00 0.00 0.00 0.00 0.00 0.00 0.00 0.00 0.00 0.00 0.00 0.00
MSLP
1021.56 1021.56 1021.64 1021.72 1021.76 1021.76 1021.80 1021.76 1021.72 1021.72 1021.68 1021.60 1021.48 1021.40 1021.28 1021.16 1020.92 1020.80 1020.68 1020.52 1020.32 1020.12 1019.88 1019.80 1019.80 1019.60 1019.32 1018.96 1018.64 1018.28 1018.00 1017.76 1017.32 1017.00 1016.72 1016.24 1015.76 1015.40 1015.16 1015.04 1014.84 1014.68
1022.04 1022.00 1022.00 1022.08 1022.12 1022.08 1022.08 1022.00 1022.04 1022.00 1022.04 1021.92 1021.84 1021.72 1021.52 1021.40 1021.28 1021.16 1020.96 1020.84 1020.68 1020.52 1020.28 1020.20 1020.04 1019.84 1019.64 1019.36 1019.04 1018.72 1018.40 1018.08 1017.80 1017.44 1017.20 1016.68 1016.08 1015.48 1015.12 1014.84 1014.64 1014.40
1022.44 1022.40 1022.48 1022.56 1022.56 1022.44 1022.36 1022.28 1022.24 1022.28 1022.28 1022.20 1022.04 1021.88 1021.80 1021.64 1021.56 1021.36 1021.20 1021.08 1021.00 1020.84 1020.64 1020.52 1020.32 1020.12 1019.96 1019.72 1019.44 1019.20 1018.92 1018.52 1018.20 1017.76 1017.44 1017.00 1016.48 1015.92 1015.28 1014.84 1014.48 1014.24
1022.84 1022.88 1022.92 1022.88 1022.76 1022.64 1022.56 1022.52 1022.52 1022.52 1022.44 1022.32 1022.28 1022.20 1022.04 1021.92 1021.80 1021.64 1021.48 1021.36 1021.28 1021.08 1020.92 1020.84 1020.80 1020.68 1020.40 1020.12 1019.80 1019.52 1019.20 1018.84 1018.52 1018.08 1017.68 1017.16 1016.64 1016.24 1015.76 1015.16 1014.56 1014.16
1023.32 1023.28 1023.24 1023.12 1023.00 1022.88 1022.80 1022.76 1022.76 1022.72 1022.64 1022.60 1022.52 1022.40 1022.28 1022.20 1022.04 1021.92 1021.76 1021.64 1021.48 1021.32 1021.20 1021.28 1021.08 1020.88 1020.60 1020.36 1020.12 1019.88 1019.52 1019.20 1018.80 1018.44 1018.04 1017.52 1017.00 1016.60 1016.00 1015.52 1014.96 1014.40
1023.64 1023.56 1023.44 1023.32 1023.20 1023.12 1023.04 1023.00 1022.96 1022.88 1022.84 1022.76 1022.72 1022.68 1022.60 1022.48 1022.32 1022.12 1022.00 1021.88 1021.72 1021.56 1021.48 1021.44 1021.28 1021.04 1020.80 1020.60 1020.28 1020.04 1019.76 1019.44 1019.08 1018.76 1018.44 1018.04 1017.40 1016.88 1016.36 1015.80 1015.36 1014.76
1024.00 1023.80 1023.68 1023.52 1023.40 1023.32 1023.28 1023.24 1023.16 1023.08 1023.04 1023.04 1022.96 1022.88 1022.88 1022.76 1022.56 1022.40 1022.24 1022.12 1022.00 1021.84 1021.68 1021.56 1021.40 1021.20 1021.00 1020.76 1020.44 1020.16 1019.80 1019.48 1019.08 1018.84 1018.64 1018.28 1017.84 1017.20 1016.64 1016.16 1015.64 1015.04
1024.12 1024.00 1023.88 1023.84 1023.76 1023.68 1023.60 1023.52 1023.44 1023.36 1023.32 1023.24 1023.24 1023.20 1023.08 1023.00 1022.80 1022.64 1022.48 1022.36 1022.20 1022.08 1021.92 1021.76 1021.60 1021.40 1021.16 1020.92 1020.64 1020.32 1020.00 1019.56 1019.16 1018.84 1018.56 1018.28 1018.00 1017.60 1017.08 1016.60 1016.04 1015.44
1024.28 1024.20 1024.20 1024.16 1024.12 1024.08 1024.00 1023.88 1023.72 1023.60 1023.52 1023.52 1023.48 1023.48 1023.28 1023.12 1023.00 1022.84 1022.72 1022.56 1022.40 1022.28 1022.16 1022.04 1021.88 1021.64 1021.40 1021.16 1020.88 1020.60 1020.24 1019.80 1019.40 1019.04 1018.64 1018.28 1018.00 1017.72 1017.36 1016.88 1016.36 1015.84
1024.52 1024.52 1024.48 1024.52 1024.48 1024.44 1024.32 1024.20 1024.04 1023.92 1023.76 1023.72 1023.72 1023.68 1023.52 1023.36 1023.16 1023.04 1022.88 1022.76 1022.64 1022.48 1022.36 1022.28 1022.08 1021.84 1021.60 1021.36 1021.16 1020.84 1020.48 1020.04 1019.56 1019.16 1018.76 1018.36 1018.04 1017.68 1017.32 1016.92 1016.56 1016.12
1024.80 1024.80 1024.84 1024.84 1024.84 1024.76 1024.64 1024.48 1024.32 1024.24 1024.12 1024.04 1024.00 1023.88 1023.76 1023.64 1023.48 1023.24 1023.16 1023.04 1022.92 1022.80 1022.64 1022.52 1022.36 1022.12 1021.80 1021.48 1021.20 1020.92 1020.64 1020.20 1019.68 1019.16 1018.68 1018.28 1017.92 1017.56 1017.16 1016.88 1016.56 1016.16
1025.04 1025.08 1025.12 1025.12 1025.04 1025.00 1024.88 1024.76 1024.64 1024.56 1024.52 1024.40 1024.28 1024.20 1024.04 1023.92 1023.80 1023.64 1023.44 1023.40 1023.24 1023.08 1022.92 1022.76 1022.56 1022.24 1021.96 1021.72 1021.36 1020.96 1020.56 1020.20 1019.80 1019.28 1018.80 1018.28 1017.76 1017.40 1017.08 1016.72 1016.36 1015.92
1025.28 1025.32 1025.32 1025.28 1025.24 1025.16 1025.08 1025.00 1024.92 1024.88 1024.80 1024.72 1024.60 1024.48 1024.36 1024.20 1024.08 1023.96 1023.76 1023.68 1023.56 1023.36 1023.16 1022.96 1022.72 1022.40 1022.12 1021.84 1021.52 1021.08 1020.72 1020.32 1019.84 1019.32 1018.84 1018.28 1017.72 1017.28 1016.80 1016.40 1016.04 1015.64
1025.52 1025.52 1025.52 1025.44 1025.40 1025.36 1025.32 1025.24 1025.20 1025.12 1025.08 1025.00 1024.84 1024.72 1024.60 1024.48 1024.40 1024.28 1024.12 1023.96 1023.80 1023.64 1023.44 1023.16 1022.96 1022.68 1022.40 1022.08 1021.72 1021.32 1020.92 1020.48 1020.04 1019.52 1018.96 1018.40 1017.80 1017.28 1016.88 1016.44 1016.08 1015.68
1025.68 1025.68 1025.68 1025.64 1025.60 1025.56 1025.52 1025.48 1025.44 1025.40 1025.32 1025.20 1025.08 1024.92 1024.80 1024.72 1024.64 1024.52 1024.36 1024.20 1024.04 1023.84 1023.64 1023.36 1023.12 1022.88 1022.68 1022.48 1022.12 1021.56 1021.16 1020.68 1020.16 1019.68 1019.20 1018.60 1017.96 1017.44 1017.04 1016.60 1016.16 1015.76
1025.92 1025.92 1025.92 1025.84 1025.80 1025.72 1025.72 1025.72 1025.68 1025.60 1025.48 1025.36 1025.24 1025.16 1025.04 1024.88 1024.80 1024.68 1024.56 1024.48 1024.28 1024.04 1023.80 1023.56 1023.28 1023.00 1022.80 1022.64 1022.36 1021.96 1021.32 1020.84 1020.32 1019.84 1019.36 1018.84 1018.20 1017.64 1017.12 1016.72 1016.28 1015.88
1026.08 1026.12 1026.08 1026.04 1026.00 1025.96 1025.92 1025.88 1025.84 1025.76 1025.64 1025.52 1025.44 1025.36 1025.24 1025.16 1025.04 1024.92 1024.80 1024.68 1024.52 1024.32 1024.04 1023.72 1023.48 1023.12 1022.96 1022.64 1022.28 1021.92 1021.40 1020.88 1020.44 1020.00 1019.52 1019.00 1018.48 1017.96 1017.40 1016.84 1016.32 1015.88
1026.28 1026.24 1026.24 1026.20 1026.12 1026.12 1026.12 1026.12 1026.04 1025.92 1025.84 1025.80 1025.68 1025.60 1025.52 1025.44 1025.32 1025.24 1025.08 1024.92 1024.72 1024.48 1024.24 1023.96 1023.64 1023.24 1023.04 1022.64 1022.28 1021.92 1021.52 1021.04 1020.56 1020.12 1019.68 1019.24 1018.80 1018.20 1017.64 1017.08 1016.52 1015.92
1026.40 1026.40 1026.40 1026.36 1026.40 1026.40 1026.36 1026.28 1026.16 1026.08 1026.04 1026.00 1025.96 1025.92 1025.84 1025.68 1025.64 1025.48 1025.28 1025.08 1024.88 1024.68 1024.40 1024.08 1023.76 1023.32 1023.08 1022.76 1022.36 1021.96 1021.56 1021.08 1020.60 1020.24 1019.76 1019.32 1018.92 1018.44 1017.84 1017.28 1016.72 1016.16
1026.60 1026.60 1026.60 1026.60 1026.64 1026.56 1026.52 1026.44 1026.36 1026.32 1026.32 1026.28 1026.20 1026.12 1026.04 1025.92 1025.72 1025.60 1025.40 1025.24 1025.04 1024.84 1024.60 1024.20 1023.80 1023.32 1023.12 1022.80 1022.48 1022.04 1021.56 1021.04 1020.64 1020.24 1019.84 1019.40 1019.00 1018.56 1018.04 1017.48 1017.00 1016.52
1026.64 1026.68 1026.72 1026.76 1026.72 1026.68 1026.64 1026.60 1026.60 1026.52 1026.44 1026.48 1026.40 1026.32 1026.24 1026.12 1026.00 1025.80 1025.56 1025.40 1025.20 1024.96 1024.68 1024.24 1023.84 1023.40 1023.08 1022.76 1022.44 1022.08 1021.60 1021.04 1020.68 1020.24 1019.80 1019.36 1019.00 1018.64 1018.16 1017.60 1017.08 1016.64
1026.68 1026.76 1026.80 1026.84 1026.84 1026.84 1026.80 1026.76 1026.72 1026.72 1026.68 1026.68 1026.52 1026.44 1026.32 1026.20 1026.00 1025.84 1025.72 1025.52 1025.24 1025.00 1024.72 1024.28 1023.84 1023.40 1023.12 1022.84 1022.52 1022.16 1021.64 1021.12 1020.72 1020.28 1019.84 1019.40 1018.96 1018.60 1018.16 1017.60 1017.12 1016.64
1026.76 1026.84 1026.88 1026.96 1027.04 1027.00 1027.00 1026.96 1026.80 1026.76 1026.84 1026.84 1026.64 1026.60 1026.44 1026.28 1026.16 1026.00 1025.84 1025.60 1025.24 1025.00 1024.80 1024.44 1024.00 1023.52 1023.24 1022.96 1022.60 1022.28 1021.72 1021.28 1020.84 1020.36 1019.92 1019.48 1019.04 1018.64 1018.20 1017.68 1017.28 1016.72
1026.88 1026.92 1026.96 1027.04 1027.12 1027.12 1027.08 1027.04 1027.00 1027.00 1027.00 1027.08 1026.92 1026.72 1026.44 1026.44 1026.28 1026.04 1025.84 1025.64 1025.44 1025.16 1024.84 1024.60 1024.28 1023.72 1023.32 1023.04 1022.72 1022.36 1022.04 1021.56 1021.08 1020.60 1020.08 1019.64 1019.08 1018.56 1018.20 1017.80 1017.40 1016.84
1027.00 1027.04 1027.08 1027.12 1027.12 1027.16 1027.12 1027.04 1027.12 1027.16 1027.20 1027.12 1027.00 1026.88 1026.64 1026.56 1026.32 1026.16 1025.96 1025.72 1025.52 1025.32 1024.88 1024.68 1024.44 1023.88 1023.40 1023.12 1022.80 1022.44 1022.12 1021.72 1021.28 1020.80 1020.28 1019.72 1019.24 1018.64 1018.16 1017.88 1017.40 1016.88
1027.04 1027.04 1027.16 1027.08 1027.08 1027.16 1027.20 1027.20 1027.24 1027.24 1027.20 1027.08 1027.00 1026.92 1026.68 1026.56 1026.48 1026.32 1026.12 1025.80 1025.60 1025.40 1025.08 1024.80 1024.48 1024.00 1023.48 1023.16 1022.84 1022.48 1022.16 1021.80 1021.40 1020.96 1020.56 1020.04 1019.48 1018.96 1018.44 1017.84 1017.44 1016.92
Thickness
5615 5615 5614 5612 5611 5610 5609 5609 5608 5608 5607 5607 5607 5607 5607 5608 5608 5609 5609 5609 5610 5610 5612 5612 5611 5611 5612 5613 5614 5616 5617 5618 5619 5620 5621 5622 5624 5625 5625 5624 5624 5623
5609 5609 5608 5606 5605 5604 5604 5604 5603 5602 5601 5601 5601 5602 5602 5602 5602 5603 5604 5604 5604 5604 5605 5605 5605 5606 5607 5608 5609 5610 5610 5611 5613 5614 5615 5616 5619 5622 5623 5623 5623 5622
5603 5602 5601 5600 5599 5599 5599 5599 5598 5597 5596 5596 5597 5596 5597 5597 5597 5597 5598 5598 5598 5599 5599 5599 5600 5600 5601 5602 5603 5603 5604 5606 5607 5608 5610 5612 5613 5616 5619 5620 5621 5621
5597 5596 5595 5594 5594 5595 5595 5594 5593 5592 5592 5591 5591 5591 5591 5591 5591 5592 5592 5592 5592 5593 5593 5593 5593 5593 5594 5596 5597 5597 5599 5600 5601 5603 5604 5607 5609 5610 5613 5616 5617 5619
5590 5589 5590 5589 5590 5590 5590 5589 5588 5587 5587 5586 5585 5585 5585 5585 5585 5586 5587 5586 5587 5587 5587 5587 5587 5588 5589 5590 5591 5591 5592 5593 5595 5596 5598 5601 5603 5604 5607 5610 5612 5615
5585 5584 5585 5586 5586 5585 5585 5584 5583 5583 5582 5581 5580 5579 5579 5579 5580 5581 5581 5581 5581 5581 5581 5581 5581 5582 5583 5584 5585 5586 5587 5588 5589 5590 5592 5594 5597 5599 5601 5604 5606 5609
5579 5580 5581 5581 5581 5580 5579 5579 5578 5577 5576 5575 5574 5573 5573 5573 5574 5574 5574 5574 5575 5575 5575 5575 5576 5577 5578 5578 5580 5581 5582 5584 5585 5586 5587 5588 5590 5592 5594 5598 5600 5604
5574 5575 5576 5575 5575 5574 5572 5572 5571 5571 5570 5569 5568 5567 5567 5568 5568 5568 5568 5568 5568 5568 5568 5569 5569 5570 5571 5572 5573 5574 5576 5578 5580 5582 5582 5583 5584 5586 5588 5590 5593 5597
5570 5570 5569 5569 5568 5567 5566 5565 5565 5565 5564 5563 5562 5561 5561 5562 5562 5562 5562 5562 5562 5562 5562 5562 5562 5563 5565 5566 5567 5568 5570 5572 5574 5575 5577 5579 5579 5580 5582 5584 5586 5589
5565 5564 5563 5562 5561 5560 5560 5559 5559 5559 5558 5557 5556 5555 5555 5555 5556 5556 5555 5556 5555 5555 5555 5555 5556 5556 5557 5559 5560 5562 5563 5565 5568 5570 5572 5573 5575 5576 5577 5578 5580 5583
5558 5557 5556 5555 5554 5554 5553 5553 5553 5552 5551 5551 5549 5549 5549 5549 5549 5549 5550 5549 5549 5548 5548 5548 5549 5549 5551 5552 5553 5555 5557 5559 5561 5564 5566 5568 5571 5572 5573 5574 5575 5578
5552 5551 5550 5549 5548 5548 5547 5547 5546 5545 5544 5544 5543 5542 5543 5543 5542 5543 5542 5542 5541 5541 5541 5541 5542 5543 5544 5546 5547 5549 5551 5553 5555 5558 5560 5563 5566 5568 5569 5571 5572 5574
5546 5545 5544 5543 5542 5542 5540 5540 5539 5538 5537 5537 5536 5536 5536 5536 5536 5535 5535 5535 5534 5534 5534 5535 5536 5537 5538 5539 5540 5543 5544 5546 5548 5551 5553 5557 5560 5562 5565 5567 5569 5570
5541 5539 5539 5538 5536 5535 5534 5534 5533 5532 5531 5530 5530 5530 5529 5529 5528 5528 5528 5528 5527 5527 5527 5528 5529 5529 5530 5532 5533 5535 5537 5539 5542 5544 5546 5549 5553 5556 5558 5560 5563 5565
5535 5534 5533 5531 5530 5529 5528 5527 5526 5525 5524 5523 5523 5524 5522 5522 5521 5521 5520 5520 5520 5520 5520 5520 5521 5521 5522 5523 5525 5527 5530 5532 5534 5536 5539 5542 5545 5548 5550 5552 5555 5558
5529 5528 5527 5525 5524 5523 5522 5521 5519 5519 5518 5518 5517 5516 5516 5516 5515 5514 5514 5513 5512 5512 5512 5513 5513 5513 5514 5514 5515 5518 5521 5524 5527 5529 5531 5534 5537 5540 5543 5545 5547 5550
5523 5522 5521 5520 5519 5517 5516 5515 5513 5513 5512 5511 5511 5510 5509 5509 5508 5507 5506 5506 5505 5505 5505 5506 5505 5506 5507 5507 5509 5510 5512 5516 5518 5521 5523 5525 5528 5531 5534 5537 5540 5542
5518 5517 5516 5515 5514 5512 5510 5509 5508 5508 5506 5505 5504 5503 5502 5502 5500 5500 5499 5499 5498 5498 5498 5498 5498 5499 5499 5500 5502 5502 5503 5506 5508 5511 5513 5516 5518 5521 5524 5528 5531 5535
5513 5512 5510 5509 5508 5506 5505 5504 5503 5502 5500 5499 5498 5497 5496 5495 5494 5493 5492 5492 5491 5491 5490 5490 5491 5492 5492 5493 5494 5494 5495 5496 5498 5499 5502 5505 5508 5510 5514 5517 5521 5525
5508 5506 5505 5504 5503 5501 5500 5499 5498 5496 5495 5493 5492 5491 5490 5488 5488 5487 5486 5485 5484 5483 5483 5484 5484 5485 5485 5485 5485 5486 5487 5488 5488 5489 5491 5493 5496 5498 5502 5506 5509 5513
5503 5502 5500 5499 5497 5496 5495 5493 5492 5491 5489 5488 5486 5485 5484 5482 5481 5481 5480 5478 5478 5477 5477 5477 5478 5478 5478 5478 5478 5479 5480 5480 5480 5481 5481 5482 5484 5486 5489 5494 5497 5500
5499 5497 5496 5494 5492 5491 5490 5489 5487 5485 5483 5482 5481 5479 5478 5477 5476 5474 5473 5472 5471 5471 5470 5470 5471 5472 5471 5471 5471 5471 5472 5473 5472 5473 5473 5473 5473 5475 5477 5481 5484 5488
5495 5493 5491 5489 5487 5486 5485 5483 5482 5480 5478 5476 5475 5474 5472 5471 5469 5468 5467 5466 5466 5465 5464 5463 5464 5464 5463 5463 5463 5463 5463 5464 5464 5464 5464 5464 5463 5463 5464 5467 5470 5474
5490 5488 5487 5485 5483 5481 5480 5479 5477 5475 5473 5471 5469 5468 5467 5465 5463 5463 5461 5460 5459 5458 5457 5456 5455 5456 5456 5455 5454 5454 5453 5454 5454 5454 5454 5455 5455 5454 5453 5453 5455 5459
5486 5483 5482 5480 5479 5477 5476 5474 5472 5470 5468 5466 5464 5463 5461 5460 5458 5457 5455 5454 5452 5451 5450 5449 5448 5447 5448 5446 5445 5445 5444 5443 5444 5444 5443 5443 5444 5444 5444 5442 5442 5444
5481 5480 5478 5477 5475 5473 5471 5469 5468 5465 5463 5462 5460 5459 5457 5455 5453 5451 5449 5448 5447 5445 5444 5443 5441 5441 5440 5439 5437 5436 5435 5433 5432 5432 5431 5430 5430 5430 5430 5430 5429 5431